Content
SEND FEEDBACK

Daily
Averages
Monthly
Summary
Mexico

SAN MARTINIANO, QUINTANA ROO


Home > North America > Mexico > Quintana Roo
Elevation: 49 feet     Latitude: 20 47N     Longitude: 087 16W

WEATHER
 
SELECT A DAY
Number of Records: 200,406;   Date Range: 2/21/06 - 9/29/14
 
SHARE

PRINT THIS DATA

[ ← Previous Day ]
WEATHER ALMANAC - JANUARY 16, 2013
[ Next Day → ]
[ °C ]   °F
Weather ElementAverageHighLow
Temperature72.2 °F84.2 °F (3:15 pm)62.6 °F (11:15 pm)
Dewpoint33.9 °F68 °F (1:35 am) (7:00 pm)
Humidity56.2 %100 % (1:35 am)33 % (3:15 pm)
Barometer30.08 in30.14 in (9:35 am)30.04 in (2:15 pm)
Wind Speed3.5 mph12.7 mph (12:35 pm)
Wind Gust16.1 mph (12:35 pm)
Weather ElementAverage
Visibility9.5 mi
Wind DirectionESE (121.2 °)

Weather ElementTotal
Precipitation---
Cooling Degree Days8.4 (Base 65)
Growing Degree Days23.4 (Base 50)
Averaged from 67 records on January 16, 2013
WEATHER CONDITIONS BREAKOUT
WIND DIRECTION BREAKOUT
WEATHER BY HOUR - JANUARY 16, 2013
[ °C ]   °F
Local TimeTemperatureDewpointHumidityBarometerVisibilityWind DirectionWind SpeedGust SpeedPrecipitationEventsConditions
12:35 AM69.8 °F64.4 °F83 %30.10 in10.0 miSE (140°)3.5 mphMostly Cloudy
1:15 AM68.0 °F66.2 °F94 %30.09 in10.0 miESE (120°)3.5 mphMostly Cloudy
1:35 AM68.0 °F68.0 °F100 %30.09 in10.0 miESE (110°)3.5 mphScattered Clouds
1:55 AM68.0 °F0.0 °F30.09 in10.0 miESE (120°)3.5 mphClear
2:15 AM66.2 °F0.0 °F30.09 in10.0 miCalmClear
2:35 AM66.2 °F0.0 °F30.09 in10.0 miESE (120°)3.5 mphClear
2:55 AM66.2 °F0.0 °F30.09 in10.0 miSE (130°)3.5 mphClear
3:15 AM66.2 °F0.0 °F30.09 in10.0 miESE (120°)3.5 mphClear
3:35 AM66.2 °F0.0 °F30.08 in10.0 miSE (130°)4.6 mphScattered Clouds
3:55 AM66.2 °F0.0 °F30.08 in10.0 miSE (130°)5.8 mphMostly Cloudy
4:15 AM66.2 °F0.0 °F30.08 in10.0 miSE (130°)3.5 mphScattered Clouds
4:35 AM66.2 °F0.0 °F30.07 in10.0 miSE (130°)3.5 mphClear
4:55 AM66.2 °F0.0 °F30.08 in10.0 miCalmClear
5:15 AM66.2 °F0.0 °F30.07 in7.0 miSE (140°)3.5 mphClear
5:35 AM66.2 °F0.0 °F30.08 in7.0 miCalmClear
5:55 AM66.2 °F0.0 °F30.08 in5.0 miSE (140°)3.5 mphHaze
6:15 AM64.4 °F0.0 °F30.09 in5.0 miCalmHaze
6:35 AM66.2 °F0.0 °F30.09 in7.0 miCalmClear
6:55 AM64.4 °F0.0 °F30.09 in2.0 miSSE (150°)3.5 mphScattered Clouds
7:35 AM66.2 °F0.0 °F30.11 in5.0 miCalmHaze
7:55 AM66.2 °F0.0 °F30.11 in7.0 miCalmOvercast
8:15 AM66.2 °F0.0 °F30.12 in10.0 miCalmMostly Cloudy
8:35 AM68.0 °F0.0 °F30.12 in10.0 miSSE (150°)3.5 mphClear
8:55 AM69.8 °F0.0 °F30.13 in10.0 miSSE (150°)4.6 mphClear
9:15 AM71.6 °F0.0 °F30.13 in10.0 miSouth (170°)5.8 mphClear
9:35 AM73.4 °F64.4 °F73 %30.14 in10.0 miSouth (170°)4.6 mphClear
9:55 AM75.2 °F64.4 °F69 %30.14 in10.0 miSouth (170°)8.1 mphClear
10:15 AM75.2 °F64.4 °F69 %30.14 in10.0 miSouth (170°)4.6 mphClear
10:35 AM77.0 °F62.6 °F61 %30.14 in10.0 miSouth (190°)9.2 mphClear
10:55 AM78.8 °F60.8 °F54 %30.13 in10.0 miSouth (190°)5.8 mphClear
11:15 AM78.8 °F60.8 °F54 %30.12 in10.0 miSSW (200°)8.1 mphClear
11:35 AM80.6 °F57.2 °F45 %30.11 in10.0 miSSE (160°)8.1 mphClear
11:55 AM80.6 °F57.2 °F45 %30.10 in10.0 miSouth (170°)6.9 mphClear
12:15 PM80.6 °F57.2 °F45 %30.09 in10.0 miSE (140°)5.8 mphClear
12:35 PM82.4 °F55.4 °F39 %30.08 in10.0 miSW (220°)12.7 mph16.1 mphScattered Clouds
12:55 PM82.4 °F55.4 °F39 %30.07 in10.0 miSSW (200°)8.1 mphScattered Clouds
1:15 PM82.4 °F53.6 °F37 %30.07 in10.0 miSSW (200°)6.9 mphClear
1:35 PM82.4 °F53.6 °F37 %30.06 in10.0 miSSE (160°)5.8 mphScattered Clouds
1:55 PM82.4 °F53.6 °F37 %30.05 in10.0 miSouth (190°)9.2 mphClear
2:15 PM82.4 °F53.6 °F37 %30.04 in10.0 miSE (140°)3.5 mphClear
2:35 PM82.4 °F53.6 °F37 %30.04 in10.0 miSouth (170°)3.5 mphScattered Clouds
3:15 PM84.2 °F51.8 °F33 %30.04 in10.0 miSW (220°)5.8 mphClear
3:35 PM82.4 °F51.8 °F35 %30.04 in10.0 miCalmClear
3:55 PM82.4 °F51.8 °F35 %30.04 in10.0 miSW (230°)5.8 mphScattered Clouds
4:15 PM80.6 °F53.6 °F39 %30.04 in10.0 miCalmScattered Clouds
4:35 PM82.4 °F53.6 °F37 %30.04 in10.0 miSouth (180°)4.6 mphClear
4:55 PM80.6 °F53.6 °F39 %30.04 in10.0 miSSW (200°)3.5 mphClear
5:15 PM80.6 °F53.6 °F39 %30.04 in10.0 miCalmClear
5:35 PM78.8 °F55.4 °F44 %30.04 in10.0 miSouth (170°)3.5 mphClear
5:55 PM77.0 °F57.2 °F50 %30.05 in10.0 miSSE (150°)3.5 mphClear
6:15 PM77.0 °F55.4 °F47 %30.05 in10.0 miSouth (180°)3.5 mphClear
6:35 PM75.2 °F57.2 °F53 %30.05 in10.0 miSW (230°)3.5 mphClear
6:55 PM73.4 °F59.0 °F61 %30.06 in10.0 miWSW (250°)5.8 mphClear
7:15 PM71.6 °F59.0 °F64 %30.07 in10.0 miWest (260°)4.6 mphClear
7:35 PM69.8 °F60.8 °F73 %30.07 in10.0 miWSW (250°)4.6 mphClear
7:55 PM71.6 °F60.8 °F69 %30.07 in10.0 miSW (230°)4.6 mphClear
8:15 PM69.8 °F60.8 °F73 %30.07 in10.0 miSW (220°)3.5 mphClear
8:35 PM68.0 °F60.8 °F78 %30.08 in10.0 miSW (230°)3.5 mphClear
8:55 PM68.0 °F62.6 °F83 %30.08 in10.0 miCalmClear
9:15 PM68.0 °F62.6 °F83 %30.07 in10.0 miCalmClear
9:55 PM64.4 °F64.4 °F100 %30.07 in10.0 miCalmClear
10:15 PM64.4 °F0.0 °F30.07 in10.0 miCalmClear
10:35 PM64.4 °F0.0 °F30.07 in10.0 miCalmClear
10:55 PM64.4 °F0.0 °F30.07 in10.0 miCalmClear
11:15 PM62.6 °F0.0 °F30.06 in10.0 miCalmClear
11:35 PM64.4 °F0.0 °F30.07 in10.0 miCalmClear
11:55 PM64.4 °F0.0 °F30.07 in10.0 miCalmClear
Hourly data recorded from KPCM, located miles away from San Martiniano, Quintana Roo







STORIES FROM OUR PARTNERS